Temperature
18 18 17 17 17 17 17 17 16 16 16 16 16 16 15 15 15 15 15 15 14 14 14 14 14 14 14 14 14 14 14 14 14 14 14 14 14 14 14 14 14 14 14
18 18 17 17 17 17 17 17 17 16 16 16 16 16 16 15 15 15 15 15 15 15 14 14 14 14 14 14 14 14 14 14 14 14 14 14 14 14 14 14 14 14 14
18 18 17 17 17 17 17 17 17 16 16 16 16 16 16 15 15 15 15 15 15 15 14 14 14 14 14 14 14 14 14 13 13 14 14 14 14 14 14 14 14 14 14
18 18 18 17 17 17 17 17 17 16 16 16 16 16 16 16 15 15 15 15 15 15 14 14 14 14 14 14 14 14 13 13 13 13 14 14 14 14 14 14 14 14 14
18 18 18 18 17 17 17 17 17 17 16 16 16 16 16 16 15 15 15 15 15 15 14 14 14 14 14 14 14 14 13 13 13 13 14 14 14 14 14 14 14 14 14
18 18 18 18 17 17 17 17 17 16 16 16 16 16 16 16 16 15 15 15 15 14 14 14 14 14 14 14 14 14 13 13 13 13 13 14 14 14 14 13 13 13 13
18 18 18 18 17 17 17 17 17 16 16 16 16 16 16 16 16 15 15 15 15 14 14 14 14 14 14 14 13 13 13 13 13 13 13 13 13 13 13 13 13 13 13
18 17 17 17 17 17 17 16 16 16 16 16 16 16 16 16 15 15 15 14 14 14 14 14 14 14 13 13 13 13 13 13 13 13 13 13 13 13 13 12 12 12 12
17 17 17 17 17 16 16 16 16 16 16 16 16 15 15 15 15 15 14 14 14 14 14 14 13 13 13 13 13 13 13 13 13 13 12 13 13 12 12 12 12 12 12
16 16 16 16 16 16 16 16 16 15 15 15 15 15 15 14 14 14 14 14 13 13 13 13 13 13 13 12 12 12 12 13 12 12 12 12 12 12 12 12 11 11 11
15 15 15 15 15 15 15 15 15 15 14 14 14 14 14 14 14 13 13 13 13 13 13 13 12 12 12 12 12 12 12 12 12 12 12 12 12 11 11 11 11 11 11
14 15 15 15 14 14 14 14 14 14 14 14 13 13 13 13 13 13 13 12 12 12 12 12 12 12 12 12 11 11 11 11 11 11 11 11 11 11 11 11 11 10 10
14 14 14 14 13 13 13 13 13 13 13 13 13 12 12 12 12 12 12 12 12 11 11 11 11 11 11 11 11 11 10 10 10 10 10 10 10 10 10 10 10 10 10
13 13 13 12 12 12 12 12 12 12 12 12 12 12 12 11 11 11 11 11 11 11 11 11 11 10 10 10 10 10 10 9 9 9 9 9 9 9 9 9 9 9 9
12 12 12 12 12 12 11 11 11 11 11 11 11 11 11 11 11 10 10 10 10 10 10 10 10 10 10 10 9 9 9 9 9 9 8 8 8 8 8 8 8 8 8
11 11 11 11 11 11 11 11 11 11 10 10 10 10 10 10 10 10 10 10 10 9 9 9 9 9 9 9 9 9 8 8 8 8 8 8 7 7 8 8 8 7 7
10 10 10 10 10 10 10 10 10 10 10 10 10 10 9 9 9 9 9 9 9 9 9 9 9 9 8 8 8 8 8 8 7 7 7 7 7 7 7 7 7 7 7
10 10 9 9 9 9 9 9 9 9 9 9 9 9 9 9 9 9 9 9 9 9 8 8 8 8 8 8 8 7 7 7 7 7 7 6 6 6 6 6 6 6 6
9 9 9 9 9 9 9 8 8 8 8 8 8 8 8 8 8 8 8 8 8 8 8 7 7 7 7 7 7 7 7 6 6 6 6 6 6 6 6 6 6 6 6
8 8 8 8 8 8 8 8 7 7 7 7 7 7 7 7 7 7 7 6 6 6 6 6 6 6 6 6 6 6 6 6 6 6 6 5 5 5 5 5 5 5 5
8 8 8 7 7 7 7 7 7 6 6 6 6 6 6 5 5 5 5 5 5 5 5 5 5 5 5 5 5 5 5 5 5 5 5 5 5 5 5 4 4 4 4
7 7 7 7 6 6 6 6 6 5 5 5 5 5 5 5 4 4 4 4 4 4 4 4 4 4 4 4 4 4 4 4 4 4 4 4 4 4 4 4 4 4 4
6 6 6 6 6 5 5 5 5 5 4 4 4 4 4 4 3 3 3 3 3 3 3 3 3 3 3 3 3 3 3 4 4 3 3 3 3 3 3 3 3 4 4
6 5 5 5 5 4 4 4 4 4 3 3 3 3 3 3 3 2 2 2 2 2 2 2 2 3 3 3 3 3 3 3 3 3 3 3 3 3 3 3 3 3 4
5 5 4 4 4 4 4 3 3 3 3 2 2 2 2 2 2 2 2 2 2 2 2 2 2 2 2 2 2 2 3 3 3 3 3 3 3 3 3 3 3 3 3
4 4 4 3 3 3 3 3 2 2 2 2 2 2 2 1 1 1 1 1 2 2 2 2 2 2 2 2 2 2 2 3 3 3 3 3 3 3 3 3 3 3 3
Wind_Speed
9 9 9 9 9 8 8 9 8 7 8 8 8 9 9 9 8 7 7 7 7 6 5 6 5 4 3 3 3 3 3 3 3 3 2 2 2 3 3 5 6 7 8
9 9 9 8 8 9 9 9 8 8 8 8 8 8 9 9 9 9 9 9 9 8 8 7 7 5 5 4 4 4 4 4 4 4 2 2 3 3 3 4 5 6 8
8 9 8 8 9 9 9 8 8 8 8 8 8 9 9 9 10 10 10 9 10 9 9 9 8 7 7 6 6 5 5 5 4 4 4 3 3 3 3 4 4 5 7
7 8 8 8 9 9 8 8 8 8 8 9 9 10 9 9 9 10 9 9 9 9 9 10 9 10 9 9 7 7 6 5 5 4 5 4 4 3 3 4 5 4 4
7 7 7 6 6 6 7 7 7 8 9 9 9 8 8 8 8 9 9 10 9 9 9 9 10 11 12 10 8 8 7 6 5 5 5 4 4 4 4 3 5 6 5
7 7 6 5 5 5 6 7 7 7 7 7 9 9 9 8 11 13 11 9 9 10 9 9 9 10 11 13 13 11 10 8 8 6 6 7 8 6 5 5 5 5 6
6 5 5 5 5 5 5 5 6 7 7 7 8 8 9 9 11 12 13 9 8 8 8 7 7 7 8 8 10 12 12 13 12 9 10 10 8 7 6 6 7 7 8
5 4 4 4 4 4 4 4 5 4 5 6 6 7 7 8 9 10 11 9 7 7 7 7 7 7 7 8 8 8 8 9 10 10 10 11 10 8 8 8 8 8 8
4 3 3 4 3 3 3 3 3 3 4 4 3 4 5 5 7 9 9 6 6 7 7 6 7 7 8 8 7 8 8 7 9 12 14 14 14 14 10 6 6 7 9
4 3 3 3 3 3 2 2 1 2 1 1 1 1 2 3 4 6 8 5 5 5 5 5 7 8 7 6 7 7 9 8 6 6 7 10 11 11 11 9 9 9 8
6 6 5 4 3 2 2 2 2 2 2 1 1 1 0 1 1 2 5 4 5 4 4 4 4 6 7 7 8 7 9 7 5 6 6 7 7 7 7 8 9 9 10
7 8 7 6 5 4 4 4 3 3 2 1 1 1 2 2 1 1 1 3 3 3 3 3 2 3 4 5 5 7 8 6 4 5 6 7 7 7 7 7 9 11 12
9 8 7 8 7 6 5 4 4 3 2 2 2 1 2 2 2 3 2 1 0 1 1 1 1 2 3 3 4 5 5 3 3 5 6 7 6 6 7 7 8 9 11
9 8 7 7 7 7 6 5 4 4 3 2 2 2 2 2 2 2 2 1 1 0 1 2 2 2 2 2 3 3 2 3 4 5 6 6 5 5 6 6 7 7 8
9 8 7 7 6 6 6 5 4 3 2 2 1 1 1 2 3 3 2 2 2 2 2 2 2 2 3 3 3 3 3 3 3 4 5 6 6 7 7 6 6 7 8
8 7 6 5 5 5 5 6 8 7 8 7 5 4 2 2 4 5 4 4 3 2 2 1 2 2 3 4 4 4 4 4 4 4 5 6 6 7 7 7 6 7 9
7 6 5 5 5 5 5 5 5 7 10 10 9 8 6 6 6 5 4 3 3 2 1 2 3 4 4 4 5 5 5 5 5 5 5 6 6 7 7 8 8 8 9
7 7 6 5 4 4 4 4 4 4 5 5 7 8 8 7 6 6 5 3 3 2 2 3 4 5 5 5 6 6 6 6 5 6 6 6 6 7 8 8 9 10 10
6 5 4 4 4 4 4 4 4 4 3 3 4 5 7 6 6 6 5 3 3 4 4 5 5 5 6 6 6 6 6 6 7 6 7 7 7 7 8 9 9 12 11
5 7 6 4 4 4 4 4 4 4 4 4 4 5 6 5 5 5 4 4 4 5 5 5 6 6 6 6 6 6 7 7 7 7 7 8 8 8 9 11 10 11 11
4 5 7 6 5 4 4 4 3 3 3 4 4 5 6 4 5 5 5 5 5 5 6 6 6 7 7 7 7 7 8 8 8 8 8 8 8 8 9 10 11 11 11
4 4 4 4 4 4 4 4 3 3 3 4 4 5 7 5 5 5 5 6 6 6 6 6 6 6 7 7 7 8 8 9 9 8 8 8 8 9 10 10 10 10 11
4 4 4 4 4 4 4 4 4 4 4 4 5 5 5 5 5 6 6 7 7 7 7 6 7 7 7 8 8 7 8 9 8 9 9 9 9 9 10 10 12 13 12
4 4 4 3 4 4 4 4 4 4 4 5 5 5 5 6 6 7 7 7 7 7 7 7 7 9 12 10 9 9 9 10 10 9 10 10 10 10 10 10 11 13 13
3 3 3 3 3 3 3 4 4 4 5 5 5 5 6 6 6 7 7 7 8 8 9 9 8 9 11 13 12 11 13 14 13 11 9 8 10 11 11 12 12 13 13
3 3 3 3 3 3 3 3 4 4 5 5 5 5 6 6 6 7 7 7 8 8 9 9 10 12 14 12 13 15 15 15 14 13 10 8 9 10 11 10 13 12 13
Wind_Direction
180 182 183 187 187 183 187 193 194 193 191 192 192 191 192 192 188 187 192 186 190 197 196 194 201 189 188 187 177 175 178 172 206 250 250 271 276 277 292 279 269 264 267
182 182 188 186 183 187 196 197 192 195 195 196 193 194 199 198 193 195 200 198 199 204 205 201 210 200 199 198 193 195 196 196 201 230 245 251 253 263 274 279 276 267 265
175 180 185 187 188 195 199 195 192 195 195 194 193 199 204 203 201 205 205 204 207 210 207 207 212 203 209 207 205 207 208 206 208 222 244 243 256 262 272 274 275 273 271
172 177 188 195 197 198 197 195 195 195 196 198 202 206 207 206 206 208 208 211 214 217 216 216 216 211 215 212 212 214 211 209 209 224 244 251 255 255 251 263 278 270 275
170 180 195 194 190 191 196 198 198 200 207 203 204 208 207 205 209 208 210 215 218 224 225 224 224 222 220 216 217 216 210 215 218 228 243 251 255 246 246 243 266 282 280
174 186 184 173 176 191 202 199 199 206 209 204 207 208 208 213 213 208 206 213 217 222 227 230 231 230 229 225 225 220 208 213 223 229 243 249 259 255 251 246 256 273 282
170 173 165 169 183 197 200 198 202 207 207 210 214 211 215 219 214 210 207 207 212 219 224 228 234 233 225 232 235 233 228 224 219 224 243 250 256 250 246 256 248 250 260
143 147 152 167 189 192 188 198 206 203 203 211 216 216 219 227 218 213 208 207 215 221 221 223 229 238 234 228 234 238 240 238 234 233 241 249 251 251 243 254 265 266 266
126 136 147 160 163 161 185 199 200 201 210 210 202 209 219 238 221 211 202 206 217 225 226 224 226 236 240 225 229 243 252 256 247 239 242 251 256 257 250 250 255 258 272
92 95 97 110 121 138 171 162 159 181 199 184 169 186 213 240 235 215 198 203 220 232 231 230 227 231 239 230 231 238 252 260 260 262 258 264 264 265 251 233 238 251 264
77 77 72 75 88 91 87 81 91 101 100 98 90 50 17 280 275 218 196 203 217 228 233 238 239 236 242 240 232 237 247 259 264 263 268 271 271 266 260 245 235 237 250
75 72 63 57 61 64 70 67 70 82 83 67 61 20 0 352 360 336 177 200 214 221 237 241 244 252 256 252 241 250 257 258 256 263 268 270 271 272 269 263 253 247 247
69 63 58 56 54 54 62 63 63 62 66 54 59 41 14 14 15 21 26 22 287 229 278 322 324 308 294 278 263 265 266 259 252 257 262 266 268 273 278 280 276 266 262
67 58 54 55 51 49 52 55 61 56 53 52 60 47 15 6 3 6 20 25 16 344 332 353 357 342 320 295 300 297 276 255 249 257 267 273 277 279 282 283 284 285 281
63 55 50 48 48 46 48 48 48 44 47 62 40 41 30 358 343 352 24 20 21 26 35 28 7 349 336 322 307 294 284 274 266 268 271 278 282 283 283 281 275 279 277
62 51 48 47 47 49 48 44 42 44 42 54 55 53 33 18 8 25 31 30 29 51 66 9 325 309 298 297 298 298 291 282 278 278 277 276 280 284 287 288 282 279 279
62 54 49 49 47 45 45 49 36 26 35 40 37 37 35 19 13 12 22 36 35 60 21 308 298 294 293 293 291 289 289 288 284 277 277 280 283 285 287 288 287 283 281
58 57 56 50 45 44 46 46 47 40 23 14 17 20 19 17 12 10 12 27 7 360 308 297 296 295 293 291 288 287 288 289 286 283 281 281 281 284 286 287 286 285 285
57 54 52 51 49 49 49 50 47 41 32 11 4 5 7 12 22 23 30 18 335 320 310 303 300 298 294 291 290 289 288 288 289 288 285 283 282 282 283 284 284 284 283
50 56 58 53 46 43 42 41 36 30 23 15 6 355 352 2 5 1 3 350 332 320 315 309 305 300 298 296 295 294 293 290 289 285 284 284 284 282 283 285 286 286 284
53 52 55 56 49 41 37 32 25 20 14 6 356 352 354 355 348 342 340 336 329 323 320 317 312 310 309 305 301 298 294 291 288 286 285 286 286 286 284 284 285 284 285
60 56 52 50 44 40 33 27 23 17 9 2 352 352 357 357 345 337 333 331 330 325 322 318 316 315 312 308 304 300 296 294 292 290 288 286 285 284 284 282 283 284 284
64 60 51 42 38 33 30 26 21 15 6 358 350 348 348 345 340 337 333 330 328 324 323 319 315 314 315 311 305 297 293 292 293 292 289 287 285 283 282 282 283 285 284
67 62 51 35 27 22 17 13 12 8 2 353 346 342 340 338 335 333 331 328 326 323 322 320 316 316 317 316 312 306 298 298 300 293 286 281 281 281 280 280 281 282 281
63 58 49 37 26 16 10 7 5 359 352 346 343 340 337 335 333 334 332 329 327 324 324 323 318 317 317 316 314 314 314 311 305 298 290 279 276 276 278 279 280 283 283
53 48 40 34 26 18 12 5 1 358 352 348 345 341 339 338 338 335 333 333 332 327 324 322 321 322 320 318 317 319 317 312 307 302 293 279 276 276 279 279 283 283 286
Height
1504 1508 1512 1516 1519 1523 1526 1529 1532 1535 1537 1540 1542 1543 1545 1546 1547 1548 1549 1550 1551 1552 1553 1554 1555 1556 1557 1558 1558 1559 1560 1561 1561 1561 1562 1563 1563 1563 1564 1563 1563 1562 1562
1502 1505 1509 1513 1516 1520 1523 1526 1529 1532 1534 1537 1539 1541 1542 1544 1545 1546 1547 1548 1548 1549 1550 1551 1552 1553 1554 1555 1555 1556 1557 1557 1558 1558 1558 1559 1559 1560 1560 1559 1559 1559 1558
1499 1503 1507 1510 1513 1516 1520 1523 1526 1528 1531 1534 1536 1537 1539 1540 1541 1542 1544 1544 1545 1546 1547 1548 1549 1550 1550 1551 1552 1553 1553 1554 1554 1554 1555 1555 1556 1556 1555 1555 1555 1555 1554
1497 1500 1503 1507 1510 1513 1516 1520 1522 1525 1527 1529 1532 1533 1535 1536 1537 1538 1540 1541 1541 1542 1543 1544 1545 1546 1547 1548 1548 1549 1550 1550 1550 1550 1551 1551 1551 1551 1551 1551 1550 1550 1549
1495 1498 1501 1504 1507 1510 1513 1516 1519 1521 1523 1525 1527 1529 1530 1531 1532 1534 1535 1536 1537 1537 1538 1539 1540 1541 1542 1543 1544 1545 1545 1546 1546 1546 1546 1546 1546 1546 1546 1546 1544 1544 1543
1492 1495 1498 1501 1504 1507 1510 1512 1514 1517 1519 1520 1522 1523 1524 1526 1527 1528 1530 1530 1531 1532 1533 1534 1535 1537 1538 1538 1539 1540 1541 1541 1541 1541 1541 1540 1541 1541 1541 1540 1539 1538 1536
1489 1492 1495 1498 1501 1503 1506 1508 1510 1512 1514 1515 1517 1518 1519 1520 1521 1523 1524 1525 1526 1527 1528 1529 1530 1531 1532 1533 1534 1535 1535 1535 1536 1536 1535 1535 1535 1535 1535 1534 1533 1531 1530
1487 1490 1493 1495 1498 1500 1502 1503 1505 1507 1509 1510 1511 1513 1514 1515 1516 1517 1519 1519 1520 1521 1522 1523 1525 1525 1526 1527 1528 1528 1529 1529 1530 1529 1529 1529 1529 1529 1528 1527 1526 1524 1522
1486 1488 1490 1493 1495 1497 1498 1499 1501 1503 1504 1505 1506 1507 1508 1509 1510 1511 1512 1513 1514 1515 1516 1517 1518 1519 1520 1521 1521 1521 1521 1522 1523 1523 1523 1522 1522 1522 1521 1519 1518 1516 1513
1484 1487 1489 1491 1492 1494 1495 1496 1498 1499 1500 1501 1501 1502 1503 1504 1506 1506 1507 1507 1508 1509 1511 1511 1512 1513 1513 1514 1514 1514 1514 1514 1515 1515 1515 1515 1514 1514 1513 1512 1510 1508 1506
1484 1486 1488 1489 1491 1492 1493 1493 1495 1496 1497 1497 1497 1498 1499 1500 1501 1501 1502 1502 1502 1504 1505 1505 1506 1507 1507 1507 1508 1507 1507 1507 1507 1507 1506 1506 1506 1505 1505 1504 1503 1501 1498
1485 1486 1487 1488 1489 1490 1491 1491 1493 1494 1495 1495 1495 1496 1496 1497 1497 1497 1497 1497 1498 1499 1499 1500 1500 1500 1501 1501 1501 1500 1500 1500 1499 1499 1498 1498 1497 1497 1496 1495 1494 1492 1490
1486 1487 1488 1489 1490 1490 1491 1491 1492 1493 1493 1493 1494 1494 1494 1494 1494 1494 1494 1494 1494 1495 1495 1494 1494 1495 1495 1495 1494 1494 1494 1493 1492 1492 1491 1490 1489 1488 1488 1487 1485 1484 1482
1488 1489 1489 1490 1491 1491 1491 1492 1492 1492 1492 1493 1493 1492 1492 1492 1492 1492 1491 1491 1492 1491 1491 1491 1491 1490 1490 1490 1489 1488 1488 1487 1486 1485 1484 1483 1482 1481 1480 1478 1477 1475 1473
1490 1491 1491 1492 1492 1492 1492 1492 1492 1492 1492 1493 1492 1492 1491 1491 1491 1491 1490 1489 1489 1489 1488 1488 1488 1487 1487 1486 1485 1484 1483 1482 1481 1479 1478 1476 1475 1474 1472 1471 1470 1468 1465
1493 1493 1493 1494 1494 1494 1494 1494 1493 1493 1493 1492 1492 1491 1491 1490 1489 1489 1488 1488 1487 1487 1486 1485 1485 1484 1483 1482 1481 1480 1479 1477 1476 1474 1473 1471 1469 1468 1466 1465 1463 1461 1459
1495 1495 1495 1495 1495 1495 1494 1494 1494 1493 1493 1492 1491 1490 1490 1489 1488 1487 1486 1486 1485 1484 1484 1483 1482 1481 1480 1479 1477 1476 1474 1473 1471 1469 1467 1466 1464 1462 1460 1458 1456 1454 1451
1497 1497 1497 1497 1496 1496 1495 1494 1493 1493 1492 1491 1490 1489 1488 1487 1486 1485 1484 1483 1482 1481 1480 1479 1478 1477 1475 1474 1472 1471 1469 1467 1466 1464 1462 1460 1458 1456 1454 1451 1449 1447 1444
1499 1498 1498 1497 1497 1496 1495 1494 1493 1492 1491 1490 1489 1488 1487 1486 1484 1483 1482 1481 1479 1478 1477 1475 1474 1472 1470 1469 1467 1465 1463 1461 1459 1457 1456 1454 1452 1449 1447 1444 1442 1439 1437
1500 1499 1499 1498 1497 1496 1495 1494 1493 1491 1490 1489 1488 1487 1485 1484 1482 1480 1479 1477 1476 1474 1472 1470 1469 1467 1465 1463 1461 1459 1457 1455 1453 1451 1449 1447 1445 1443 1440 1437 1435 1432 1429
1501 1500 1499 1498 1497 1496 1495 1493 1492 1490 1489 1488 1486 1485 1483 1481 1479 1478 1476 1474 1472 1470 1468 1466 1464 1461 1459 1457 1454 1452 1450 1448 1446 1444 1442 1440 1438 1435 1433 1430 1428 1425 1422
1501 1500 1499 1498 1497 1495 1494 1492 1491 1489 1487 1486 1484 1483 1481 1479 1477 1475 1472 1470 1468 1466 1463 1461 1458 1456 1453 1451 1448 1446 1444 1441 1439 1437 1435 1433 1430 1428 1425 1423 1420 1418 1415
1500 1499 1498 1497 1496 1494 1493 1491 1489 1487 1486 1484 1482 1480 1478 1476 1473 1471 1469 1466 1464 1461 1459 1456 1453 1450 1448 1445 1443 1440 1437 1435 1433 1430 1428 1425 1423 1421 1418 1416 1413 1411 1408
1500 1499 1498 1496 1495 1493 1491 1489 1487 1485 1484 1482 1480 1478 1475 1473 1470 1467 1465 1462 1459 1456 1454 1451 1448 1445 1442 1440 1437 1434 1431 1429 1426 1424 1421 1418 1416 1413 1411 1409 1406 1404 1401
1499 1498 1496 1495 1493 1492 1490 1488 1486 1484 1482 1480 1477 1475 1472 1470 1467 1464 1461 1458 1455 1452 1449 1446 1443 1440 1437 1434 1431 1429 1426 1423 1420 1417 1415 1412 1409 1407 1404 1402 1399 1397 1394
1498 1497 1495 1494 1492 1490 1488 1486 1484 1482 1480 1478 1475 1473 1470 1467 1465 1462 1459 1455 1452 1449 1445 1442 1439 1436 1433 1430 1427 1424 1421 1418 1415 1412 1408 1406 1403 1400 1398 1395 1393 1390 1387